< Cyclone 200614 2006 Season Cyclone 200616 >
Cyclone 200615 (LARRY)
General InformationTrack Information on Google MapsDetailed Wind InformationList of All Images || ResourceGoogle EarthGE AnimationAtom FeedGeoJSON
Detalied Best Track (Time Zone = UTC)
Year Month Day Hour Lat. Long. Pressure (hPa) Wind (kt) Class Image Chart
2006 3 14 12 -12.4 158.0 1003 25 2 Image --
2006 3 14 18 -12.4 158.0 1003 25 2 Image --
2006 3 15 00 -12.4 158.0 1005 25 2 Image --
2006 3 15 06 -12.4 158.7 1004 25 2 Image --
2006 3 15 12 -12.4 159.4 1003 25 2 Image --
2006 3 15 18 -13.3 159.4 1003 25 2 Image --
2006 3 16 00 -14.0 159.7 1001.5 25 2 Image --
2006 3 16 06 -14.3 160.0 1000 30 2 Image --
2006 3 16 12 -14.6 160.0 1000 30 2 Image --
2006 3 16 18 -14.9 160.3 1000 30 2 Image --
2006 3 17 00 -15.1 160.0 999 30 2 Image --
2006 3 17 06 -15.6 159.6 998 30 2 Image --
2006 3 17 12 -16.0 159.0 999 30 2 Image --
2006 3 17 18 -16.2 158.0 995 40 3 Image --
2006 3 18 00 -17.1 156.6 985 50 4 Image --
2006 3 18 06 -17.0 155.4 975 60 4 Image --
2006 3 18 12 -17.1 154.6 970 65 5 Image --
2006 3 18 18 -17.4 152.8 970 70 5 Image --
2006 3 19 00 -17.6 151.2 970 90 5 Image --
2006 3 19 06 -17.5 149.7 955 90 5 Image --
2006 3 19 09 -17.5 148.9 935 95 5 Image --
2006 3 19 12 -17.4 148.3 935 100 5 Image --
2006 3 19 15 -17.4 147.6 935 100 5 Image --
2006 3 19 17 -17.4 147.1 935 100 5 Image --
2006 3 19 18 -17.4 146.8 935 100 5 Image --
2006 3 19 19 -17.4 146.6 935 100 5 Image --
2006 3 19 20 -17.5 146.4 935 100 5 Image --
2006 3 19 21 -17.5 146.1 940 95 5 Image --
2006 3 19 22 -17.3 145.8 950 90 5 Image --
2006 3 19 23 -17.3 145.6 959 90 5 Image --
2006 3 20 00 -17.4 145.3 965 85 5 Image --
2006 3 20 06 -17.7 143.8 980 55 4 Image --
2006 3 20 12 -18.6 142.2 990 40 3 Image --
2006 3 20 15 -18.9 141.2 995 30 2 Image --
2006 3 20 18 -18.9 140.8 997 30 2 Image --
2006 3 21 01 -19.4 139.7 997 25 2 Image --
2006 3 21 04 -19.5 139.0 997 25 2 Image --
2006 3 21 11 -19.6 138.7 997 25 2 Image --
< Cyclone 200614 2006 Season Cyclone 200616 >

Help